[[{"header":{"parameterUnit":"m.s-1","parameterCategory":1,"la1":30.2991,"la2":30.254,"lo1":-89.0895,"lo2":-89.0444,"dy":0.0017,"dx":0.0017,"nx":28,"ny":28,"refTime":"2024-06-07T21:00:00:Z","depth":0,"parameterNumber":2,"parameterNumberName":"U-component_of_WINDS"},"data":[0,0,0,0,0,0,0,0,0,0,0,0,0,0,0,0,0,0,0,0,0,0,0,0,0,0,0,0,0,0,0,0,0,0,0,0,0,0,0,0,0,0,0,0,0,0,0,0,0,0,0,0,0,0,0,0,0,0,2.248,2.2482,0,2.2643,2.2645,2.2647,2.2646,2.2643,2.2641,2.2639,2.2812,2.2818,2.2824,0,0,0,0,0,0,0,0,0,0,0,0,0,2.2172,2.2177,2.248,2.2482,2.2484,2.2643,2.2645,2.2647,2.2646,2.2643,2.2641,2.2638,2.2809,2.2817,2.2825,0,0,0,0,0,0,0,0,0,0,0,0,0,2.2317,2.2179,2.2479,2.2502,2.2506,2.2642,2.2645,2.2648,2.2646,2.2643,2.264,2.2637,2.2807,2.2816,2.2826,2.2952,0,0,2.2856,2.2861,0,0,0,0,0,0,0,0,2.2309,2.2329,2.2497,2.2501,2.2505,2.262,2.2599,2.275,2.2647,2.2593,2.2639,2.2635,2.2751,2.2765,2.2803,2.296,2.2967,2.2857,2.2863,2.2868,2.287,0,0,0,0,0,0,0,2.2299,2.2322,2.2544,2.2499,2.2504,2.2506,2.2523,2.2628,2.2688,2.2598,2.2598,2.2617,2.2753,2.2794,2.2807,2.297,2.2857,2.2866,2.2872,2.2876,2.3239,2.3242,0,0,0,0,0,0,2.2284,2.2313,2.2539,2.2549,2.2397,2.2514,2.2533,2.2587,2.2687,2.2699,2.262,2.2616,2.2778,2.2796,2.2813,2.2967,2.2867,2.2877,2.2882,2.3235,2.3239,2.3243,0,0,0,0,0,0,2.2277,2.2304,2.2533,2.2431,2.2461,2.2523,2.2583,2.2592,2.2633,2.2704,2.2715,2.265,2.2776,2.2799,2.2917,2.2973,2.2881,2.289,2.3231,2.3236,2.3241,2.3275,0,0,0,0,0,0,2.2268,2.2301,2.2349,2.2432,2.2466,2.2633,2.2586,2.2597,2.2649,2.2646,2.2735,2.2747,2.2776,2.2902,2.2927,2.2985,2.2898,2.3226,2.3233,2.324,2.3269,2.3281,2.3291,0,0,0,0,0,2.2257,2.2353,2.2351,2.2378,2.2526,2.2636,2.2655,2.2685,2.2653,2.2702,2.2748,2.2744,2.2963,2.2914,2.2942,2.3004,2.3222,2.3231,2.3239,2.3265,2.3279,2.3291,0,0,0,0,0,0,2.2276,2.2364,2.2363,2.2489,2.2554,2.2635,2.2698,2.2699,2.2776,2.2771,2.2806,2.2826,2.2943,2.2986,2.293,2.3131,2.3089,2.3103,2.3099,2.3113,2.3124,2.3111,2.2906,0,0,0,0,0,2.2294,2.2374,2.2448,2.2552,2.2584,2.2635,2.2684,2.2701,2.2771,2.28,2.2854,2.2924,2.3008,2.3063,2.3145,2.3276,2.3295,2.3332,2.3343,2.3351,2.3363,2.3436,2.3453,2.3271,2.3271,2.327,0,0,2.2334,2.2392,2.2441,2.2557,2.261,2.2693,2.2659,2.2749,2.2811,2.2814,2.2928,2.297,2.305,2.3175,2.3233,2.3214,2.3418,2.3362,2.3368,2.3376,2.3446,2.3463,2.3478,2.3276,2.3275,2.3274,0,0,2.2448,2.25,2.2592,2.2645,2.2725,2.2758,2.278,2.2861,2.2889,2.3003,2.3007,2.3083,2.3227,2.3284,2.3332,2.3467,2.3467,2.3493,2.3551,2.3621,2.3635,2.3648,2.3696,2.3713,2.3505,2.3505,2.3505,0,2.2487,2.2611,2.2639,2.2729,2.278,2.2785,2.2879,2.293,2.3033,2.3069,2.3046,2.3227,2.3281,2.3419,2.3452,2.3491,2.3518,2.3483,2.363,2.3644,2.3656,2.3702,2.372,2.3508,2.3508,2.3507,2.3507,0,2.2656,2.2742,2.2807,2.2904,2.2963,2.3054,2.3097,2.3154,2.3166,2.3202,2.3319,2.3384,2.3478,2.3513,2.3526,2.3653,2.3638,2.3623,2.3581,2.3675,2.3719,2.3737,2.3512,2.3511,2.351,2.3509,0,0,2.2786,2.2897,2.2921,2.2965,2.3054,2.3121,2.3214,2.3304,2.3352,2.3423,2.3502,2.3624,2.3609,2.3664,2.3684,2.3745,2.3848,2.3722,2.3724,2.3742,2.3991,2.4002,2.4022,2.3848,2.3851,2.3854,2.3984,0,2.2909,2.3071,2.3099,2.3241,2.3321,2.3327,2.3407,2.3471,2.3507,2.3581,2.3622,2.3708,2.3682,2.3715,2.3776,2.3822,2.3898,2.3813,2.3922,2.3925,2.3901,2.4045,2.4057,2.4176,2.4002,2.4005,2.4007,0,2.3074,2.3148,2.3297,2.3375,2.341,2.3481,2.3566,2.3637,2.371,2.3732,2.3792,2.3805,2.3902,2.3856,2.399,2.3932,2.3978,2.4008,2.4013,2.4024,2.3971,2.4059,2.4215,2.4233,2.4034,2.4032,2.403,0,2.3154,2.3291,2.3398,2.3435,2.3529,2.3579,2.362,2.369,2.3742,2.3818,2.3852,2.3939,2.3986,2.4053,2.4089,2.4052,2.4221,2.4178,2.4242,2.4241,2.4277,2.4274,2.4442,2.4308,2.4308,2.4307,2.4307,0,2.3288,2.3379,2.3434,2.35,2.3603,2.3635,2.3736,2.3776,2.3838,2.3913,2.3924,2.3994,2.4037,2.4114,2.4143,2.425,2.4271,2.4292,2.4299,2.4291,2.4288,2.4321,2.4314,2.4312,2.4311,2.431,2.4309,0,2.3394,2.3434,2.3551,2.3629,2.3651,2.3723,2.3791,2.3856,2.3892,2.3986,2.401,2.4067,2.4158,2.42,2.4313,2.4333,2.4454,2.4455,2.4428,2.4431,2.4492,2.4486,2.4687,2.4715,2.4563,2.4564,2.4565,0,2.3476,2.3546,2.3632,2.3682,2.3724,2.3805,2.3858,2.3893,2.3948,2.4036,2.409,2.4181,2.4256,2.4401,2.4453,2.4539,2.4542,2.4607,2.4556,2.4545,2.4543,2.4537,2.4544,2.4616,2.4618,2.4619,2.462,0,2.3618,2.3635,2.371,2.3794,2.3857,2.3924,2.3991,2.4031,2.4077,2.4139,2.4231,2.4288,2.4403,2.4493,2.4583,2.4627,2.4631,2.4636,2.4655,2.4647,2.4628,2.4638,2.4453,2.4631,2.463,2.4629,2.4628,2.4628,2.3715,2.3777,2.3846,2.3931,2.3984,2.4046,2.411,2.4153,2.423,2.4325,2.4341,2.4439,2.4511,2.4631,2.4679,2.4756,2.4741,2.477,2.4777,2.4783,2.4786,2.4616,2.4773,2.4773,2.4773,2.4773,2.4772,0,2.3856,2.3901,2.3978,2.407,2.4137,2.4134,2.4207,2.4263,2.4348,2.4414,2.4487,2.4592,2.468,2.4739,2.4828,2.4878,2.4883,2.4901,2.4897,2.4907,2.4795,2.4768,2.4896,2.4896,2.4896,2.4896,2.4895,2.4895,2.3938,2.4042,2.4067,2.4199,2.4244,2.4339,2.4381,2.4438,2.449,2.4607,2.468,2.4717,2.478,2.4874,2.4954,2.4969,2.5001,2.5019,2.5034,2.4928,2.4915,2.4902,2.4878,2.5026,2.5026,2.5139,2.5141,2.5141]},{"header":{"parameterUnit":"m.s-1","parameterCategory":1,"la1":30.2991,"la2":30.254,"lo1":-89.0895,"lo2":-89.0444,"dy":0.0017,"dx":0.0017,"nx":28,"ny":28,"refTime":"2024-06-07T21:00:00:Z","depth":0,"parameterNumber":3,"parameterNumberName":"V-component_of_WINDS"},"data":[0,0,0,0,0,0,0,0,0,0,0,0,0,0,0,0,0,0,0,0,0,0,0,0,0,0,0,0,0,0,0,0,0,0,0,0,0,0,0,0,0,0,0,0,0,0,0,0,0,0,0,0,0,0,0,0,0,0,2.6556,2.6557,0,2.665,2.6651,2.6652,2.6557,2.6553,2.655,2.6546,2.6645,2.6651,2.6657,0,0,0,0,0,0,0,0,0,0,0,0,0,2.6292,2.6298,2.6556,2.6557,2.6558,2.6649,2.6651,2.6652,2.6558,2.6553,2.6549,2.6545,2.6643,2.665,2.6657,0,0,0,0,0,0,0,0,0,0,0,0,0,2.6399,2.6299,2.6555,2.6522,2.652,2.6649,2.6651,2.6652,2.6559,2.6553,2.6548,2.6542,2.664,2.6649,2.6658,2.6826,0,0,2.6686,2.669,0,0,0,0,0,0,0,0,2.6393,2.6409,2.6526,2.6524,2.6522,2.6586,2.6594,2.6711,2.656,2.6544,2.6546,2.654,2.663,2.6639,2.6669,2.6831,2.6835,2.6687,2.6693,2.6696,2.6699,0,0,0,0,0,0,0,2.6386,2.6404,2.6593,2.6527,2.6525,2.6501,2.651,2.6616,2.6617,2.6545,2.6538,2.6551,2.6628,2.6661,2.6671,2.6836,2.6687,2.6695,2.67,2.6704,2.7132,2.7138,0,0,0,0,0,0,2.6382,2.6398,2.659,2.6596,2.6442,2.6511,2.6521,2.6571,2.6616,2.6617,2.6555,2.6546,2.6648,2.6661,2.6674,2.6867,2.6696,2.6705,2.671,2.7126,2.7133,2.714,0,0,0,0,0,0,2.6377,2.64,2.6586,2.6495,2.6517,2.6521,2.6579,2.6576,2.6609,2.6623,2.6623,2.6589,2.6644,2.6661,2.6787,2.687,2.6709,2.6717,2.7119,2.7128,2.7136,2.7259,0,0,0,0,0,0,2.6369,2.6399,2.6463,2.6497,2.6522,2.6698,2.6584,2.6582,2.6624,2.6613,2.6655,2.6656,2.6641,2.6774,2.6796,2.6879,2.6724,2.7112,2.7123,2.7134,2.7248,2.7271,2.7291,0,0,0,0,0,2.636,2.6496,2.6467,2.6491,2.6603,2.6703,2.6718,2.6697,2.6632,2.6695,2.6704,2.6655,2.6858,2.6788,2.6812,2.6899,2.7106,2.712,2.7133,2.7238,2.7266,2.7291,0,0,0,0,0,0,2.6474,2.65,2.6468,2.6619,2.6659,2.6687,2.6767,2.6729,2.6789,2.6776,2.6748,2.6758,2.689,2.6908,2.6829,2.706,2.6971,2.699,2.7043,2.707,2.7091,2.7082,2.6732,0,0,0,0,0,2.6516,2.6596,2.6615,2.6746,2.6767,2.6764,2.6807,2.6787,2.6828,2.6845,2.6863,2.6905,2.6976,2.7025,2.7093,2.7251,2.7255,2.7322,2.7344,2.7362,2.7377,2.7455,2.7483,2.7183,2.7183,2.7183,0,0,2.6605,2.6629,2.6682,2.6769,2.6798,2.6878,2.6779,2.6871,2.6929,2.6859,2.6976,2.6991,2.7036,2.7176,2.7239,2.7195,2.7461,2.7379,2.7393,2.7398,2.7471,2.7499,2.7524,2.7192,2.7191,2.7189,0,0,2.6806,2.6836,2.6944,2.6974,2.7017,2.7014,2.704,2.7073,2.7079,2.7196,2.7143,2.7213,2.734,2.7371,2.7404,2.7612,2.7567,2.7636,2.7748,2.7824,2.7847,2.7868,2.7936,2.7961,2.7652,2.7652,2.7652,0,2.6911,2.7031,2.7005,2.7098,2.7136,2.7074,2.7182,2.7213,2.7277,2.7304,2.7254,2.7407,2.7434,2.7577,2.7627,2.7658,2.7683,2.7629,2.7846,2.7866,2.7885,2.7949,2.7976,2.7659,2.7659,2.7658,2.7657,0,2.7154,2.7237,2.732,2.738,2.7428,2.7529,2.7516,2.7568,2.7543,2.7543,2.7661,2.769,2.7759,2.7792,2.7771,2.7931,2.7902,2.785,2.7759,2.7921,2.7981,2.8006,2.767,2.7668,2.7665,2.7663,0,0,2.743,2.7471,2.7501,2.7524,2.7566,2.763,2.7726,2.7792,2.7833,2.788,2.7957,2.8063,2.8013,2.805,2.8031,2.8099,2.8253,2.8037,2.8038,2.8071,2.8424,2.8459,2.8489,2.8225,2.823,2.8234,2.8418,0,2.7627,2.7792,2.7769,2.7927,2.8,2.7941,2.8023,2.8057,2.806,2.8122,2.8125,2.8198,2.813,2.8151,2.8216,2.8221,2.8323,2.8208,2.8293,2.8296,2.8278,2.8521,2.856,2.8733,2.8443,2.8447,2.845,0,2.788,2.793,2.8094,2.8118,2.8148,2.8223,2.8278,2.834,2.8375,2.8372,2.8411,2.8379,2.8472,2.8382,2.8508,2.843,2.8463,2.8471,2.8477,2.848,2.8379,2.8526,2.8788,2.8812,2.8487,2.8484,2.8482,0,2.8056,2.8167,2.8276,2.83,2.8333,2.8385,2.8402,2.8431,2.847,2.8519,2.8543,2.8604,2.8636,2.8682,2.8665,2.8603,2.8792,2.8703,2.8788,2.8788,2.8828,2.8825,2.9094,2.8859,2.8858,2.8858,2.8857,0,2.8276,2.8377,2.8355,2.8423,2.8533,2.8506,2.8615,2.8624,2.8651,2.8717,2.8672,2.8735,2.8711,2.8773,2.8761,2.8862,2.8879,2.8877,2.8871,2.8878,2.8877,2.8896,2.8881,2.8865,2.8863,2.8862,2.8861,0,2.849,2.8481,2.8595,2.8616,2.8623,2.8703,2.8719,2.8781,2.8779,2.8863,2.8882,2.8879,2.8948,2.8936,2.9015,2.9006,2.9131,2.9115,2.9118,2.9112,2.9196,2.9186,2.9483,2.9518,2.9266,2.9268,2.927,0,2.8628,2.8704,2.8731,2.8771,2.8789,2.8856,2.8894,2.887,2.8911,2.8954,2.901,2.9075,2.9125,2.9238,2.9242,2.93,2.928,2.938,2.9288,2.929,2.9274,2.9267,2.9272,2.9397,2.94,2.9402,2.9404,0,2.8872,2.8862,2.8919,2.8972,2.9018,2.906,2.9097,2.9132,2.9111,2.9159,2.9228,2.9267,2.9343,2.9406,2.9459,2.9475,2.9434,2.9433,2.9454,2.9459,2.9456,2.9453,2.9162,2.9425,2.9423,2.9422,2.9421,2.942,2.9049,2.911,2.9137,2.9199,2.9224,2.9258,2.9315,2.9319,2.9375,2.9434,2.9417,2.9494,2.9522,2.9589,2.961,2.9668,2.9631,2.9664,2.9672,2.9679,2.9686,2.9451,2.9679,2.9678,2.9677,2.9677,2.9677,0,2.9285,2.9298,2.9356,2.9406,2.9455,2.9412,2.945,2.9492,2.956,2.959,2.9638,2.9714,2.9774,2.9782,2.9838,2.9882,2.9865,2.9897,2.9891,2.9894,2.9719,2.9692,2.991,2.991,2.991,2.991,2.991,2.991,2.9413,2.9512,2.9505,2.9615,2.9628,2.97,2.9724,2.9755,2.9777,2.9864,2.9912,2.9916,2.9936,2.9992,3.0043,3.0044,3.0064,3.0102,3.0095,2.9931,2.9907,2.9885,2.9859,3.0108,3.0109,3.0264,3.0266,3.0267]}]]